DateTimeUTC,F1_A11,F1_S11,BsB_S11,BsG_S11,BsR_S11,BbsB_S11,BbsG_S11,BbsR_S11,BaB_A11,BaG_A11,BaR_A11,Tu_S11,T_S11,Uu_S11,U_S11,P_S11,T1_A11
2021-08-14T02:00:00Z,00000200,20000000,,,,,,,-000.03,0000.29,0000.18,18.4,24.8,17.2,11.6,0674.2,30.9
2021-08-14T02:01:00Z,00000200,20000000,,,,,,,0000.21,-000.30,-000.12,18.4,24.8,17.3,11.6,0674.3,30.9
2021-08-14T02:02:00Z,00000200,20000000,,,,,,,-000.12,-000.05,0000.16,18.4,24.9,17.3,11.6,0674.3,30.9
2021-08-14T02:03:00Z,00000200,60000000,,,,,,,0000.73,0000.94,0000.28,18.4,24.9,17.3,11.6,0674.3,30.9
2021-08-14T02:04:00Z,00000200,40000000,0004.68,0004.25,0002.99,0001.11,0000.57,0000.44,0001.49,0001.27,0000.97,18.5,24.7,17.5,12.0,0675.3,30.9
2021-08-14T02:05:00Z,00000200,00000000,0004.40,0004.04,0002.59,0000.30,0000.61,0000.53,0001.04,0000.85,0000.82,18.6,24.7,17.6,12.1,0675.4,30.9
2021-08-14T02:06:00Z,00000200,00000000,0004.76,0003.60,0002.99,0000.36,0000.26,0000.42,0001.09,0000.95,0000.69,18.6,24.6,17.6,12.1,0675.4,30.9
2021-08-14T02:07:00Z,00000200,00000000,0004.36,0003.60,0002.69,0000.68,0000.38,0000.34,0000.80,0000.57,0000.85,18.6,24.6,17.7,12.2,0675.4,30.9
2021-08-14T02:08:00Z,00000200,00000000,0004.82,0003.80,0002.67,0001.01,0000.63,0000.83,0001.00,0000.80,0000.45,18.6,24.6,17.7,12.3,0675.4,30.9
2021-08-14T02:09:00Z,00000200,00000000,0004.23,0003.63,0002.66,0001.07,0000.53,0000.30,0000.56,0001.08,0000.62,18.6,24.6,17.7,12.3,0675.3,30.9
2021-08-14T02:10:00Z,00000200,00000000,0003.76,0003.40,0002.37,0000.61,0000.40,0000.46,0001.18,0000.68,0000.96,18.6,24.6,17.9,12.4,0675.3,30.9
2021-08-14T02:11:00Z,00000200,00000000,0003.92,0002.97,0002.50,0001.21,0000.46,0000.49,0000.88,0000.74,0000.44,18.5,24.6,18.0,12.4,0675.3,30.9
2021-08-14T02:12:00Z,00000200,00000000,0003.39,0003.08,0002.32,0000.49,0000.27,0000.48,0000.96,0000.71,0000.61,18.6,24.6,18.0,12.5,0675.4,30.9
2021-08-14T02:13:00Z,00000200,00000000,0003.26,0003.34,0001.89,0000.91,0000.38,0000.48,0000.87,0001.04,0000.64,18.7,24.6,18.0,12.5,0675.3,30.9
2021-08-14T02:14:00Z,00000200,00000000,0003.70,0003.29,0001.89,0000.49,0000.72,0000.33,0000.55,0000.65,0000.45,18.8,24.7,17.9,12.5,0675.3,30.9
2021-08-14T02:15:00Z,00000200,00000000,0003.66,0002.97,0002.34,0001.13,0000.41,0000.50,0001.19,0000.71,0000.59,18.8,24.7,18.0,12.5,0675.3,30.9
2021-08-14T02:16:00Z,00000200,00000000,0003.53,0003.20,0002.15,0000.63,0000.35,0000.58,0000.22,0000.29,0000.59,18.9,24.8,17.8,12.5,0675.3,30.9
2021-08-14T02:17:00Z,00000200,00000000,0003.07,0002.93,0002.11,0001.15,0000.49,0000.33,0000.85,0000.75,0000.28,18.9,24.8,17.8,12.4,0675.4,30.9
2021-08-14T02:18:00Z,00000200,00000000,0002.84,0002.76,0002.01,0000.47,0000.55,0000.32,0000.63,0000.37,0000.24,18.9,24.8,17.7,12.4,0675.3,30.9
2021-08-14T02:19:00Z,00000200,00000000,0003.51,0002.24,0002.10,0001.12,0000.44,0000.66,0000.42,0000.68,0000.59,18.9,24.8,17.8,12.4,0675.3,30.9
2021-08-14T02:20:00Z,00000200,00000000,0002.94,0002.70,0001.92,0001.02,0000.14,0000.44,0000.90,0000.50,0000.57,18.9,24.8,17.8,12.4,0675.3,30.9
2021-08-14T02:21:00Z,00000200,00000000,0002.39,0002.71,0001.97,0000.47,0000.46,0000.59,0000.43,0000.64,0000.36,18.9,24.8,17.7,12.4,0675.3,30.9
2021-08-14T02:22:00Z,00000200,00000000,0002.96,0002.14,0001.86,0000.93,0000.43,0000.36,0000.47,0000.31,0000.23,18.9,24.8,17.8,12.4,0675.3,30.9
2021-08-14T02:23:00Z,00000200,00000000,0003.08,0002.90,0001.81,0000.46,0000.37,0000.55,0000.71,0000.58,0000.40,18.9,24.8,17.8,12.5,0675.3,30.9
2021-08-14T02:24:00Z,00000200,00000000,0002.50,0001.96,0001.61,0000.29,0000.16,0000.18,0000.44,0000.60,0000.25,18.9,24.8,17.9,12.5,0675.4,30.9
2021-08-14T02:25:00Z,00000200,00000000,0002.69,0002.24,0001.53,0000.43,-000.02,0000.23,0000.45,0000.56,0000.14,18.9,24.8,17.8,12.4,0675.4,30.9
2021-08-14T02:26:00Z,00000200,00000000,0002.69,0002.03,0001.42,0000.61,0000.24,-000.10,0000.29,0000.15,0000.51,18.9,24.8,17.9,12.5,0675.4,30.9
2021-08-14T02:27:00Z,00000200,00000000,0002.34,0002.12,0001.27,0000.46,0000.25,-000.13,0000.66,0000.31,0000.15,18.9,24.8,18.0,12.5,0675.4,30.9
2021-08-14T02:28:00Z,00000200,00000000,0001.78,0002.76,0001.50,0001.11,0000.18,0000.44,0000.80,0000.43,0000.62,18.8,24.8,18.0,12.6,0675.3,30.9
2021-08-14T02:29:00Z,00000200,00000000,0001.85,0001.84,0001.42,0001.06,0000.25,0000.47,0000.31,0000.50,0000.29,18.8,24.8,18.1,12.6,0675.3,30.9
2021-08-14T02:30:00Z,00000200,00000000,0002.30,0002.15,0001.27,0000.48,0000.45,0000.09,0000.66,0000.59,0000.21,18.8,24.8,18.1,12.6,0675.4,30.9
2021-08-14T02:31:00Z,00000200,00000000,0002.32,0001.71,0001.30,0000.65,0000.54,0000.46,0000.39,0000.20,0000.05,18.8,24.7,18.2,12.7,0675.4,30.9
2021-08-14T02:32:00Z,00000200,00000000,0002.32,0002.02,0001.34,0000.51,0000.13,0000.37,0000.18,0000.46,0000.63,18.8,24.7,18.3,12.7,0675.4,30.9
2021-08-14T02:33:00Z,00000200,00000000,0002.68,0001.84,0001.23,0000.66,0000.32,0000.09,0000.38,0000.39,0000.12,18.8,24.7,18.3,12.7,0675.3,30.9
2021-08-14T02:34:00Z,00000200,00000000,0001.35,0002.27,0001.24,0000.68,0000.24,0000.38,0000.11,0000.12,0000.13,18.8,24.7,18.5,12.8,0675.3,30.9
2021-08-14T02:35:00Z,00000200,00000000,0002.13,0001.82,0001.27,0000.50,0000.42,0000.55,0000.44,0000.38,0000.11,18.8,24.7,18.5,12.9,0675.4,30.9
2021-08-14T02:36:00Z,00000200,00000000,0001.39,0001.55,0000.99,0000.12,0000.29,0000.36,0000.57,0000.28,0000.41,18.8,24.7,18.6,13.0,0675.4,30.9
2021-08-14T02:37:00Z,00000200,00000000,0001.31,0001.03,0001.07,0000.04,0000.27,0000.12,-000.00,-000.03,0000.14,18.8,24.7,18.7,13.0,0675.4,30.9
2021-08-14T02:38:00Z,00000200,00000000,0000.99,0001.19,0000.81,0000.50,0000.03,0000.41,0000.38,0000.17,0000.27,18.8,24.7,18.8,13.1,0675.3,30.9
2021-08-14T02:39:00Z,00000200,00000000,0000.48,0001.20,0000.56,-000.19,0000.19,0000.35,0000.45,0000.50,0000.08,18.8,24.7,18.9,13.2,0675.3,30.9
2021-08-14T02:40:00Z,00000200,00000000,0000.76,0000.71,0000.73,0000.39,0000.26,0000.23,0000.26,-000.13,-000.06,18.8,24.7,19.0,13.2,0675.3,30.9
2021-08-14T02:41:00Z,00000200,00000000,0000.25,0001.27,0000.44,0000.03,0000.64,0000.16,-000.30,-000.03,0000.06,18.8,24.7,18.9,13.2,0675.3,30.9
2021-08-14T02:42:00Z,00000200,00000000,0000.71,0000.56,0000.42,-000.15,0000.15,0000.14,0000.33,0000.26,0000.18,18.8,24.7,19.0,13.2,0675.3,30.9
2021-08-14T02:43:00Z,00000200,00000000,0000.65,0000.78,0000.62,0000.09,0000.12,0000.32,0000.15,-000.03,-000.20,18.8,24.7,19.1,13.3,0675.3,30.9
2021-08-14T02:44:00Z,00000200,00000000,0000.52,0000.82,0000.38,0000.14,0000.28,0000.51,0000.02,0000.31,0000.09,18.8,24.7,19.1,13.3,0675.3,30.9
2021-08-14T02:45:00Z,00000200,00000000,0000.86,0000.78,0000.44,-000.13,-000.13,0000.25,0000.61,0000.37,0000.75,18.8,24.7,19.1,13.3,0675.3,30.9
2021-08-14T02:46:00Z,00000200,00000000,0000.87,0000.57,0000.54,0000.08,0000.06,0000.59,-000.46,-000.29,-000.77,18.8,24.7,19.2,13.3,0675.2,30.9
2021-08-14T02:47:00Z,00000200,00000000,0001.37,0000.67,0000.33,0000.39,0000.37,0000.27,0000.08,-000.05,0000.11,18.8,24.7,19.2,13.4,0675.2,30.9
2021-08-14T02:48:00Z,00000200,00000000,0000.54,0000.59,0000.57,0000.38,0000.18,0000.25,-000.30,-000.36,0000.09,18.8,24.7,19.3,13.5,0675.2,30.9
2021-08-14T02:49:00Z,00000200,00000000,0000.99,0000.55,0000.26,0000.10,0000.05,0000.09,0000.72,0000.58,0000.04,18.8,24.7,19.3,13.4,0675.2,30.9
2021-08-14T02:50:00Z,00000200,00000000,0000.91,0000.41,0000.38,0000.21,0000.05,-000.06,-000.30,-000.23,-000.40,18.8,24.7,19.3,13.4,0675.3,30.9
2021-08-14T02:51:00Z,00000200,00000000,0000.82,0000.74,0000.24,0000.19,0000.23,0000.21,-000.23,-000.06,0000.09,18.8,24.7,19.3,13.4,0675.3,30.9
2021-08-14T02:52:00Z,00000200,00000000,0000.97,0000.22,0000.53,0000.14,0000.18,0000.27,0000.23,-000.01,-000.13,18.8,24.7,19.2,13.4,0675.3,30.9
2021-08-14T02:53:00Z,00000200,00000000,-000.04,0000.64,0000.34,0000.90,0000.26,0000.02,0000.06,0000.01,0000.01,18.8,24.7,19.3,13.4,0675.3,30.9
2021-08-14T02:54:00Z,00000200,00000000,0000.73,0000.32,0000.62,0000.08,0000.31,0000.27,-000.02,0000.13,0000.22,18.8,24.7,19.2,13.4,0675.3,30.9
2021-08-14T02:55:00Z,00000200,00000000,0000.85,0000.70,0000.59,-000.01,0000.09,0000.31,-000.29,0000.16,-000.11,18.8,24.7,19.3,13.4,0675.3,30.9
2021-08-14T02:56:00Z,00000200,00000000,0001.31,0000.67,0000.38,0000.79,0000.13,0000.25,0000.18,-000.11,-000.03,18.8,24.7,19.3,13.4,0675.3,30.9
2021-08-14T02:57:00Z,00000200,40000000,,,,,,,-000.12,-000.72,-000.74,18.8,24.7,19.4,13.5,0675.4,30.9
2021-08-14T02:58:00Z,00000200,60000000,,,,,,,-000.19,0000.00,0000.33,18.7,24.8,19.1,13.1,0674.3,30.9
2021-08-14T02:59:00Z,00000200,20000000,,,,,,,0000.18,0000.16,-000.37,18.7,25.0,19.3,13.1,0674.2,30.9
